#timestamp,LO_Frequency,Hit,StdDev 
1588384815.8,286046998.2,N
1588384835.6,286046998.1,N
1588384855.5,286046997.4,N
1588384875.3,286046997.8,N
1588384895.1,286046994.9,N
1588384915.9,286046997.0,N
1588384935.7,286046996.9,N
1588384955.5,286046998.6,N
1588384975.4,286046999.3,N
1588384995.2,286046996.9,N
1588385015.1,286046996.9,N
1588385016.0,286046996.9,N
1588385035.8,286046998.7,N
1588385055.6,286047000.8,N
1588385075.5,286047002.8,N
1588385095.3,286047000.0,N
1588385115.2,286046996.6,N
1588385135.9,286047000.0,N
1588385155.7,286046998.6,N
1588385175.6,286046998.8,N
1588385195.4,286046998.3,N
1588385215.2,286047001.1,N
1588385235.1,286046999.0,N
1588385236.0,286046999.0,N
1588385255.8,286046998.9,N
1588385275.7,286046999.1,N
1588385295.5,286046999.9,N
1588385315.3,286047000.3,N
1588385335.2,286047002.3,N
1588385355.0,286047000.0,N
1588385355.9,286047000.0,N
1588385375.8,286047000.5,N
1588385395.6,286047000.0,N
1588385415.4,286047001.2,N
1588385435.3,286047001.2,N
1588385455.1,286047001.0,N
1588385475.9,286047000.6,N
1588385495.7,286047001.1,N
1588385515.5,286047001.0,N
1588385535.4,286047000.9,N
1588385555.2,286047001.9,N
1588385575.1,286046998.7,N
1588385576.0,286046998.7,N
1588385595.8,286046999.4,N
1588385615.6,286046999.5,N
1588385635.5,286046996.9,N
1588385655.3,286046996.6,N
1588385675.2,286046997.2,N
1588385695.9,286046997.2,N
1588385715.7,286046997.7,N
1588385735.6,286046997.1,N
1588385755.4,286046997.2,N
1588385775.2,286046996.1,N
1588385795.1,286046990.1,Y
1588385796.0,286046990.1,P
1588385815.8,286046992.2,N
1588385835.7,286046994.7,N
1588385855.5,286046993.7,N
1588385875.3,286046993.3,N
1588385895.2,286046996.0,N
1588385915.0,286046997.7,N
1588385915.9,286047011.9,Y
1588385935.8,286047002.3,P
1588385955.6,286046998.4,N
1588385975.4,286046998.7,N
1588385995.3,286046997.5,N
1588386015.1,286046997.7,N
1588386035.9,286046998.0,N
1588386055.7,286046996.9,N
1588386075.5,286046997.2,N
1588386095.4,286046999.5,N
1588386115.2,286046997.1,N
1588386135.0,286046997.4,N
1588386136.0,286046997.4,N
1588386155.8,286046997.9,N
1588386175.6,286046997.8,N
1588386195.5,286046997.5,N
1588386215.3,286046997.8,N
1588386235.2,286046995.0,Y
1588386255.9,286046998.2,P
1588386275.7,286046999.1,P
1588386295.6,286046998.7,N
1588386315.4,286046999.2,N
1588386335.2,286046998.3,Y
1588386355.1,286047000.4,P
1588386356.0,286047000.4,N
1588386375.8,286047001.0,N
1588386395.7,286047001.1,N
1588386415.5,286047000.9,N
1588386435.3,286046998.5,N
1588386455.2,286047001.1,N
1588386475.0,286047000.7,N
1588386475.9,286047000.7,N
1588386495.8,286047002.7,N
1588386515.6,286047002.6,N
1588386535.4,286047002.2,N
1588386555.3,286047000.8,N
1588386575.1,286047000.8,N
1588386595.9,286047000.7,N
1588386615.7,286047000.6,N
1588386635.5,286047000.7,N
1588386655.4,286047000.4,N
1588386675.2,286047002.2,N
1588386695.0,286047001.9,N
1588386695.9,286047001.9,N
1588386715.8,286047002.4,N
1588386735.6,286047002.7,N
1588386755.5,286047002.3,N
1588386775.3,286047000.0,N
1588386795.1,286047001.9,N
1588386815.9,286047004.3,Y
1588386835.7,286047000.5,P
1588386855.6,286046999.9,N
1588386875.4,286047001.9,P
1588386895.2,286047002.6,Y
1588386915.1,286046998.9,P
1588386916.0,286046998.9,N
1588386935.8,286047000.8,N
1588386955.7,286047001.7,N
1588386975.5,286047001.4,N
1588386995.3,286047001.1,N
1588387015.2,286047000.5,N
1588387035.0,286047000.0,N
1588387035.9,286047000.0,N
1588387055.8,286047000.7,N
1588387075.6,286046999.3,N
1588387095.4,286046998.9,N
1588387115.3,286047001.1,N
1588387135.1,286047000.1,N
1588387155.8,286047001.9,N
1588387175.7,286047003.2,Y
1588387195.5,286047003.1,P
1588387215.4,286047003.6,N
1588387235.2,286047005.2,P
1588387255.0,286047005.5,Y
1588387255.9,286047005.5,P
1588387275.8,286047001.5,N
1588387295.6,286047004.0,N
1588387315.5,286047001.3,N
1588387335.3,286047004.2,N
1588387355.1,286047003.7,N
1588387375.9,286047003.3,N
1588387395.7,286047005.7,Y
1588387415.6,286046999.4,P
1588387435.4,286046999.2,N
1588387455.2,286046996.7,N
1588387475.1,286046998.4,N
1588387476.0,286046998.4,N
1588387495.8,286046999.0,N
1588387515.6,286046998.4,N
1588387535.5,286047000.7,N
1588387555.3,286047001.2,N
1588387575.2,286046998.8,N
1588387595.9,286046998.3,N
1588387615.7,286047000.9,N
1588387635.6,286047001.0,N
1588387655.4,286047002.3,N
1588387675.3,286047001.0,N
1588387695.1,286047001.0,N
1588387696.0,286047001.0,N
1588387715.8,286047001.0,N
1588387735.7,286047002.1,N
1588387755.5,286047004.1,N
1588387775.4,286047001.9,N
1588387795.2,286047000.3,N
1588387815.0,286047000.8,N
1588387815.9,286047000.8,N
1588387835.8,286047000.1,N
1588387855.6,286047000.5,N
1588387875.4,286047002.1,N
1588387895.3,286047002.7,N
1588387915.1,286047001.8,N
1588387935.9,286047002.6,N
1588387955.7,286047004.3,N
1588387975.5,286047003.8,N
1588387995.4,286047004.0,N
1588388015.2,286047003.9,N
1588388035.1,286047001.5,N
1588388036.0,286047001.5,N
1588388055.8,286047000.0,N
1588388075.6,286047000.3,N
1588388095.5,286047004.2,N
1588388115.3,286047005.5,Y
1588388135.1,286047001.7,P
1588388155.9,286047003.9,P
1588388175.7,286047001.9,N
1588388195.6,286047002.4,N
1588388215.4,286047002.1,N
1588388235.2,286047000.3,N
1588388255.1,286047002.2,N
1588388256.0,286047002.2,N
1588388275.8,286047000.9,N
1588388295.7,286047000.1,N
1588388315.5,286046999.3,N
1588388335.3,286046998.9,N
1588388355.2,286046997.5,N
1588388375.0,286046998.4,N
1588388375.9,286046998.4,N
1588388395.8,286046998.1,N
